Wind_Speed
28 28 30 31 32 34 36 37 39 37 37 35 34 34 36 40 43 45 47 49 51 53 54 55 55 56 58 57 56 55 54 53 51 50 50 49 48 48 47 46 45 44 43 42
30 29 32 32 31 33 35 36 37 37 37 36 36 36 37 39 42 44 46 48 49 51 53 55 54 55 57 57 57 56 54 53 52 51 51 50 49 49 48 47 46 45 44 43
31 30 32 31 29 32 34 35 35 36 36 37 38 38 38 39 42 44 47 49 50 51 52 54 55 55 56 57 57 56 54 53 53 52 51 51 50 49 48 47 46 45 44 43
31 31 31 27 28 30 32 33 35 36 37 37 37 38 38 39 41 43 46 49 51 51 52 53 53 55 55 56 56 55 54 53 52 52 52 51 50 49 48 47 46 46 45 43
30 30 30 26 28 30 32 33 34 35 35 37 37 38 38 39 41 43 45 48 51 51 52 53 53 53 54 55 56 56 55 53 53 52 52 52 51 50 49 48 47 45 44 43
30 31 29 26 28 31 33 34 34 35 36 36 38 39 38 39 40 42 44 47 50 52 52 52 53 53 53 53 55 55 55 54 54 53 52 52 51 50 49 48 47 46 44 44
30 31 29 26 28 31 33 32 33 34 36 37 38 39 39 41 41 42 44 47 50 51 52 51 51 52 54 54 54 55 55 55 54 53 52 52 51 50 50 49 48 46 46 45
32 31 28 28 30 31 31 33 34 34 35 36 37 38 40 41 42 42 43 45 48 51 52 52 51 51 52 54 54 54 55 54 53 53 53 53 52 50 50 50 48 47 47 46
32 30 29 29 31 32 33 33 33 34 35 36 36 36 38 40 41 42 44 44 47 49 51 51 52 52 52 52 53 54 54 54 52 51 52 52 51 50 49 49 49 48 48 47
32 30 29 30 31 32 34 34 34 34 34 36 37 36 36 38 40 42 44 45 46 48 50 50 50 51 51 51 51 52 53 54 53 52 51 51 50 50 48 48 47 47 46 45
31 29 31 31 32 32 33 34 34 34 33 35 36 36 36 37 40 40 43 45 46 47 47 48 49 50 50 50 49 50 51 52 53 53 52 51 50 49 48 48 47 46 45 45
29 28 30 29 31 32 33 32 33 34 35 35 36 36 36 38 40 41 42 44 45 47 47 47 48 49 49 48 48 48 48 49 50 51 51 50 50 49 48 47 47 46 45 44
30 29 28 27 28 30 31 32 32 32 34 35 36 37 37 38 39 41 42 43 45 45 45 46 46 47 48 48 48 47 46 46 46 47 48 48 48 48 48 47 46 45 43 42
30 29 27 26 27 28 29 30 31 31 32 34 36 37 37 37 39 40 42 43 44 44 43 44 45 45 46 47 48 47 46 45 45 46 46 47 47 46 46 46 45 43 41 41
28 27 26 26 27 27 28 28 28 29 30 31 33 34 36 37 38 40 41 42 43 43 43 44 45 44 45 45 46 46 46 46 46 46 46 46 45 45 44 43 43 41 40 40
26 26 26 26 26 27 27 27 26 26 27 28 30 32 34 36 37 39 40 41 41 42 42 43 43 44 43 44 44 44 44 43 43 44 43 43 43 42 42 42 42 42 41 41
24 24 25 25 25 26 27 27 27 26 26 28 28 30 32 35 36 37 37 39 40 40 41 42 42 42 43 43 44 43 43 42 42 41 41 41 40 40 39 39 40 41 41 40
24 24 24 25 25 25 26 27 27 27 27 28 29 29 31 33 35 35 35 36 38 39 40 40 41 41 42 42 42 43 42 41 41 40 40 40 39 39 39 38 38 37 36 36
24 25 25 26 26 26 27 28 28 28 29 29 30 30 30 32 34 34 34 35 37 37 38 39 40 40 41 42 41 41 41 40 39 39 38 38 38 38 38 37 37 36 35 33
25 26 26 26 26 27 28 28 27 27 27 28 29 29 29 30 32 34 34 34 35 35 36 37 38 38 38 39 38 38 39 38 38 37 37 37 37 37 37 36 35 34 33 32
25 26 26 26 26 26 27 27 26 25 25 26 27 28 29 30 31 32 33 33 34 35 35 36 37 37 36 36 36 35 36 36 36 36 35 35 35 35 34 34 33 32 32 32
25 25 25 25 25 25 25 25 25 24 25 25 26 27 27 28 30 31 32 33 33 34 35 35 36 36 35 35 34 33 34 34 35 34 33 33 33 34 33 32 31 31 31 30
25 25 25 24 23 23 23 23 23 22 22 23 23 25 26 26 27 28 29 32 33 34 35 35 35 35 35 35 34 33 33 33 33 32 32 31 31 31 31 30 30 29 29 29
24 24 23 22 22 22 21 21 21 20 20 21 21 22 24 25 25 26 27 30 32 34 34 34 33 34 35 35 35 34 33 33 32 32 32 31 30 30 29 29 29 29 29 28
23 23 22 20 20 20 19 19 18 18 18 18 19 20 21 22 24 26 26 28 31 32 32 32 33 33 34 34 34 34 33 32 31 30 29 29 29 30 29 29 28 28 28 27
21 21 20 19 18 18 17 17 18 19 18 18 19 19 19 21 23 24 25 27 29 30 30 29 30 30 32 32 33 32 32 31 31 29 28 28 28 28 27 27 28 27 27 26
19 19 18 17 16 15 15 15 16 16 16 16 17 18 19 21 22 22 23 25 27 28 28 27 27 28 29 30 31 31 30 30 29 28 28 27 27 26 26 26 26 26 26 25
Wind_Direction
273 268 263 257 250 246 248 250 249 244 241 237 237 235 233 232 230 228 227 225 225 225 225 224 225 226 225 225 226 227 228 230 232 233 234 235 236 238 240 242 244 246 249 251
274 271 265 260 253 249 248 249 250 248 244 240 238 237 235 233 231 227 225 225 225 226 225 225 225 226 227 226 227 227 228 230 232 233 234 235 236 238 240 242 244 246 248 251
277 272 267 262 255 250 249 249 248 247 245 244 242 240 237 234 232 228 227 225 224 225 226 226 225 226 226 227 227 228 228 229 231 232 234 235 236 238 239 241 243 245 248 251
279 274 268 266 258 252 250 247 247 247 246 244 242 240 237 234 232 230 228 225 225 225 225 225 226 226 226 227 227 228 229 229 230 232 233 235 236 238 239 240 243 245 248 251
281 276 270 263 258 253 249 247 247 248 247 245 242 239 237 234 231 229 226 224 224 224 225 225 225 226 226 226 226 227 229 230 230 232 234 234 236 237 239 241 243 245 248 251
281 277 272 265 259 254 250 249 247 249 248 246 242 239 237 233 230 229 225 223 223 224 224 225 226 226 227 227 226 226 227 229 230 232 233 235 235 236 239 241 243 245 247 250
281 278 273 266 259 255 253 251 248 248 247 246 244 240 237 234 231 229 226 223 222 223 224 225 226 226 227 227 227 227 227 228 230 231 233 234 236 237 238 240 242 244 246 249
279 275 274 264 260 258 256 252 250 250 248 247 245 242 238 235 232 230 227 225 223 223 224 224 225 226 226 227 227 227 228 228 230 231 232 233 235 237 239 240 241 244 247 250
280 277 272 265 262 258 256 254 252 251 248 246 244 244 242 238 233 231 229 227 224 223 224 224 224 225 226 226 227 228 229 229 229 231 234 234 235 237 239 241 243 245 248 251
278 275 269 264 261 258 257 256 254 252 249 247 246 245 244 240 234 231 229 228 226 224 224 226 225 225 226 227 228 228 229 229 230 231 234 235 236 237 239 241 244 246 249 251
278 274 266 262 259 257 258 257 256 254 250 248 246 244 244 240 236 233 229 227 226 225 224 225 225 226 227 228 229 229 229 230 231 233 235 236 236 238 239 241 243 246 248 250
278 275 269 263 258 256 257 258 258 255 251 248 246 244 243 239 236 233 230 227 226 225 225 226 227 228 227 228 229 230 231 231 232 234 235 236 237 238 238 240 242 244 246 249
275 273 270 267 263 260 260 260 260 258 253 249 247 245 242 238 236 232 230 228 227 226 226 227 229 229 228 227 228 229 230 232 233 234 236 237 237 237 238 241 242 243 246 249
274 273 271 269 267 264 263 261 261 259 255 251 249 247 242 237 235 232 230 229 228 227 227 227 229 230 229 228 229 229 230 232 234 235 236 236 238 239 239 240 241 243 246 249
273 271 270 268 266 265 265 264 263 260 257 252 250 246 241 237 234 233 232 229 228 228 226 227 228 229 229 230 230 230 231 233 234 235 236 236 238 238 239 240 242 245 248 250
272 270 269 267 265 266 265 264 263 260 256 254 251 247 241 237 235 235 234 231 229 228 226 226 227 229 229 230 230 231 231 233 234 235 234 234 236 238 240 242 245 247 249 251
273 270 268 267 267 268 266 264 262 259 254 251 251 248 242 237 236 234 234 232 230 227 226 225 225 227 229 229 230 231 231 231 232 232 233 233 235 237 238 240 243 245 248 250
276 272 270 269 269 270 268 266 265 261 256 252 251 249 243 237 234 234 232 230 229 229 227 226 226 226 227 228 228 228 229 229 230 231 233 233 234 237 239 240 242 244 246 248
279 276 273 272 272 271 271 270 268 263 257 253 250 248 243 237 234 233 231 228 227 228 227 227 226 225 225 225 226 227 228 228 230 231 232 233 234 236 238 240 243 245 247 249
279 278 277 276 274 272 270 269 267 264 258 253 250 245 241 238 235 232 230 229 226 224 225 225 226 225 225 224 224 225 227 227 229 231 233 234 234 234 236 238 241 242 245 248
281 280 279 277 276 274 271 267 264 260 256 253 249 243 240 237 234 231 229 227 224 223 222 222 223 223 223 223 223 224 224 225 226 227 229 230 231 232 234 236 238 240 243 247
282 281 280 279 278 275 270 265 261 257 255 253 249 242 239 236 233 230 227 224 221 221 220 219 220 220 221 222 222 222 223 223 224 224 226 228 231 232 233 235 237 239 242 247
283 281 282 282 278 273 267 263 260 257 256 254 250 243 237 233 229 226 222 221 220 218 216 216 218 218 219 221 222 222 222 222 222 222 224 227 229 229 230 233 235 239 243 247
282 281 281 280 276 271 264 260 258 257 256 253 246 239 234 229 225 222 218 216 216 216 215 216 217 218 220 220 220 220 222 222 223 223 225 227 228 229 230 232 236 241 244 248
283 282 280 278 272 267 262 258 257 257 255 248 239 233 229 224 221 218 216 214 212 212 214 216 218 219 219 218 218 218 219 221 222 223 226 228 230 231 231 233 237 242 244 247
285 282 278 275 272 265 259 257 254 253 251 242 233 227 222 218 216 215 215 213 210 210 212 215 216 216 216 217 216 216 217 220 222 225 227 227 228 228 231 234 238 241 243 246
282 276 271 269 268 263 260 257 253 249 244 235 225 221 218 215 214 213 211 210 209 209 209 210 210 211 211 210 211 213 215 217 220 222 223 224 226 228 231 233 235 239 241 244
Height
5498 5498 5498 5498 5500 5502 5502 5504 5507 5512 5516 5522 5525 5529 5533 5537 5543 5549 5556 5563 5570 5577 5585 5593 5601 5609 5618 5626 5634 5641 5648 5655 5662 5668 5673 5678 5683 5687 5691 5695 5699 5702 5705 5707
5491 5491 5489 5490 5492 5493 5495 5497 5500 5503 5508 5514 5516 5520 5524 5529 5534 5540 5546 5553 5560 5568 5575 5583 5591 5599 5607 5615 5623 5631 5638 5645 5652 5657 5663 5668 5673 5677 5681 5685 5688 5692 5695 5698
5483 5483 5481 5482 5486 5486 5488 5490 5493 5495 5501 5504 5507 5511 5515 5520 5524 5530 5536 5544 5551 5558 5566 5573 5581 5588 5596 5604 5612 5619 5627 5634 5640 5646 5652 5658 5662 5667 5671 5675 5678 5682 5685 5688
5474 5475 5473 5479 5477 5478 5479 5482 5485 5488 5492 5495 5498 5502 5506 5511 5515 5521 5527 5534 5541 5548 5556 5563 5570 5578 5585 5593 5601 5608 5616 5623 5629 5635 5641 5647 5652 5656 5661 5665 5668 5672 5675 5678
5467 5465 5466 5470 5470 5470 5471 5474 5477 5479 5483 5485 5488 5492 5497 5501 5506 5511 5517 5523 5530 5538 5545 5552 5560 5567 5575 5582 5590 5597 5605 5612 5618 5624 5630 5636 5641 5646 5650 5654 5658 5662 5665 5668
5460 5458 5458 5464 5463 5462 5464 5466 5469 5470 5473 5476 5478 5483 5488 5491 5496 5501 5507 5513 5520 5528 5535 5542 5550 5557 5564 5571 5579 5586 5593 5601 5607 5613 5619 5625 5630 5635 5640 5644 5648 5652 5655 5658
5452 5450 5451 5455 5454 5454 5457 5459 5461 5462 5463 5466 5469 5473 5477 5480 5485 5491 5496 5503 5510 5517 5525 5532 5539 5546 5553 5561 5568 5575 5582 5589 5596 5602 5608 5614 5619 5624 5629 5634 5638 5642 5646 5649
5445 5443 5448 5447 5446 5446 5447 5449 5451 5452 5454 5456 5459 5462 5466 5470 5475 5480 5486 5492 5499 5507 5514 5521 5528 5536 5543 5550 5557 5564 5571 5578 5585 5591 5597 5603 5608 5613 5618 5623 5627 5631 5635 5638
5438 5439 5439 5438 5437 5437 5438 5440 5442 5443 5445 5447 5450 5453 5456 5460 5465 5470 5476 5483 5489 5496 5504 5510 5518 5525 5532 5539 5546 5553 5560 5567 5574 5580 5586 5592 5598 5603 5608 5613 5617 5621 5625 5628
5429 5430 5429 5428 5428 5428 5429 5431 5432 5434 5436 5438 5441 5444 5447 5451 5455 5460 5466 5472 5479 5486 5494 5500 5507 5514 5522 5528 5535 5542 5549 5556 5563 5570 5575 5581 5587 5593 5598 5602 5607 5611 5614 5618
5420 5421 5419 5419 5419 5420 5420 5421 5423 5425 5427 5429 5431 5435 5438 5441 5446 5451 5456 5462 5469 5476 5483 5490 5497 5504 5511 5518 5525 5532 5539 5546 5552 5559 5564 5570 5576 5582 5587 5592 5596 5601 5604 5607
5412 5412 5410 5411 5411 5411 5411 5412 5413 5415 5417 5420 5422 5425 5428 5432 5436 5441 5446 5452 5459 5466 5473 5480 5487 5494 5500 5507 5514 5521 5528 5535 5541 5548 5554 5559 5565 5571 5575 5581 5585 5589 5593 5597
5403 5402 5401 5402 5402 5402 5402 5403 5404 5405 5407 5410 5412 5415 5419 5423 5427 5432 5437 5443 5449 5456 5462 5469 5476 5483 5490 5497 5504 5511 5518 5525 5531 5537 5543 5549 5554 5560 5565 5570 5574 5579 5583 5586
5394 5393 5393 5394 5393 5393 5393 5394 5395 5396 5397 5400 5402 5405 5409 5413 5418 5422 5427 5433 5439 5445 5452 5459 5466 5472 5479 5486 5493 5500 5507 5514 5520 5526 5532 5538 5544 5549 5554 5559 5564 5568 5572 5575
5386 5385 5385 5385 5385 5385 5385 5386 5386 5387 5388 5390 5392 5395 5399 5403 5408 5413 5418 5423 5429 5435 5442 5449 5456 5462 5469 5476 5483 5489 5496 5503 5509 5515 5521 5527 5533 5538 5543 5549 5553 5558 5562 5565
5378 5377 5376 5377 5377 5377 5377 5378 5378 5379 5380 5381 5383 5386 5389 5393 5398 5403 5408 5414 5419 5425 5432 5438 5445 5452 5459 5466 5472 5479 5486 5492 5498 5505 5510 5516 5522 5528 5533 5538 5543 5548 5552 5555
5370 5370 5369 5369 5369 5369 5369 5370 5370 5371 5372 5373 5375 5377 5380 5384 5389 5394 5399 5404 5409 5416 5422 5428 5436 5442 5449 5456 5463 5469 5476 5482 5488 5494 5500 5506 5512 5518 5523 5528 5533 5537 5541 5544
5363 5362 5361 5361 5361 5361 5361 5361 5361 5362 5363 5365 5366 5369 5372 5376 5381 5385 5390 5395 5400 5406 5413 5419 5426 5433 5440 5446 5453 5459 5466 5472 5479 5485 5491 5497 5502 5508 5513 5518 5523 5527 5530 5533
5355 5354 5354 5353 5353 5353 5353 5353 5353 5353 5354 5356 5358 5361 5364 5368 5372 5376 5381 5386 5392 5398 5404 5410 5416 5423 5430 5437 5443 5450 5456 5463 5469 5475 5481 5487 5493 5498 5503 5508 5513 5517 5521 5524
5348 5347 5346 5345 5344 5344 5344 5344 5344 5344 5345 5347 5349 5352 5355 5359 5363 5367 5372 5377 5383 5389 5395 5401 5408 5415 5421 5428 5434 5441 5447 5454 5460 5466 5472 5478 5483 5489 5494 5499 5504 5508 5512 5515
5340 5339 5337 5336 5336 5335 5335 5335 5335 5336 5336 5338 5340 5343 5346 5350 5354 5358 5363 5369 5375 5380 5386 5393 5400 5407 5413 5419 5426 5432 5438 5445 5451 5457 5463 5469 5475 5480 5485 5490 5495 5499 5503 5506
5332 5331 5329 5328 5327 5327 5326 5326 5327 5327 5328 5329 5331 5334 5337 5341 5345 5350 5355 5361 5366 5372 5378 5385 5392 5399 5405 5411 5418 5424 5431 5437 5443 5449 5455 5461 5467 5472 5477 5482 5486 5490 5494 5498
5324 5323 5322 5320 5319 5319 5318 5318 5319 5319 5320 5322 5323 5325 5329 5333 5337 5342 5347 5353 5358 5364 5371 5378 5385 5391 5398 5404 5411 5417 5424 5430 5436 5442 5448 5454 5459 5464 5469 5474 5478 5482 5486 5489
5317 5315 5314 5313 5312 5311 5311 5312 5312 5313 5314 5315 5316 5318 5322 5326 5330 5335 5340 5345 5351 5357 5364 5371 5377 5384 5391 5397 5403 5410 5417 5423 5429 5435 5441 5447 5452 5457 5461 5466 5470 5474 5477 5480
5309 5308 5307 5306 5305 5304 5305 5305 5306 5307 5307 5308 5310 5313 5316 5320 5324 5329 5333 5338 5344 5351 5358 5364 5371 5377 5384 5390 5397 5404 5410 5417 5423 5428 5434 5439 5444 5449 5453 5458 5461 5465 5469 5472
5302 5301 5300 5299 5298 5298 5298 5299 5300 5301 5302 5303 5306 5308 5312 5315 5319 5324 5328 5333 5339 5345 5352 5359 5365 5371 5377 5384 5391 5398 5404 5410 5416 5422 5427 5432 5436 5441 5445 5449 5453 5457 5460 5463
5295 5294 5293 5293 5292 5292 5293 5293 5294 5295 5297 5299 5301 5305 5308 5312 5316 5320 5325 5330 5336 5342 5348 5354 5360 5366 5372 5378 5385 5392 5398 5404 5410 5415 5420 5424 5429 5433 5437 5441 5445 5448 5451 5454